Welcome to the New NWS' Forecast!
Most changes are behind the scenes, but click here for differences you might notice.

Regional Weather Roundup (RWR)

Issued by Little Rock, AR (LZK)

                            
666 
ASUS44 KLZK 250305
RWRLZK

WEATHER ROUNDUP FOR ARKANSAS
NATIONAL WEATHER SERVICE LITTLE ROCK AR
1000 PM CDT WED MAY 24 2017

NOTE: "FAIR" INDICATES FEW OR NO CLOUDS BELOW 12,000 FEET WITH NO
SIGNIFICANT WEATHER AND/OR OBSTRUCTIONS TO VISIBILITY.

ARZ001-003-010-029-250400-
NORTHWEST ARKANSAS
  
CITY           SKY/WX    TMP DP  RH WIND       PRES   REMARKS
FAYETTEVILLE   CLEAR     52  50  93 S3        29.72R                  
FORT SMITH     CLEAR     59  47  64 W6        29.71R                  
HARRISON       CLEAR     51  50  96 W3        29.71R                  
BENTONVILLE    CLEAR     55  46  71 CALM      29.72S                  
ROGERS         CLEAR     55  49  80 CALM      29.72S                  
SILOAM SPGS    CLEAR     54  45  71 CALM      29.72R                  
HIGHFILL       CLEAR     55  50  83 W6        29.72R                  
$$

ARZ004-005-016-250400-
NORTH CENTRAL ARKANSAS
  
CITY           SKY/WX    TMP DP  RH WIND       PRES   REMARKS
BATESVILLE     CLEAR     55  48  76 W5        29.68R                  
FLIPPIN        CLEAR     54  45  71 W3        29.67R                  
MTN HOME       CLEAR     54  50  86 VRB3      29.68R                  
$$

ARZ040-041-250400-
WEST CENTRAL ARKANSAS
  
CITY           SKY/WX    TMP DP  RH WIND       PRES   REMARKS
MENA           CLEAR     55  54  94 W5        29.74R                  
MOUNT IDA      CLEAR     54  48  80 CALM      29.70R                  
$$

ARZ009-017-025-026-028-250400-
NORTHEAST ARKANSAS
  
CITY           SKY/WX    TMP DP  RH WIND       PRES   REMARKS
JONESBORO      CLEAR     58  50  75 W7        29.64R                  
WALNUT RIDGE   CLEAR     57  46  67 W8        29.65R                  
BLYTHEVILLE    CLEAR     58  53  84 W3        29.63R                  
$$

ARZ022-023-033-042-044-250400-
CENTRAL ARKANSAS
  
CITY           SKY/WX    TMP DP  RH WIND       PRES   REMARKS
LITTLE ROCK    PTCLDY    58  52  80 W5        29.70R                  
N LITTLE ROCK    N/A     56  51  85 CALM      29.70S                  
JACKSONVILLE   CLEAR     57  53  87 W5        29.69R                  
CONWAY           N/A     59  54  82 W3        29.69R                  
SEARCY         CLEAR     57  51  80 VRB3      29.70R                  
HOT SPRINGS    CLEAR     59  50  72 CALM      29.71R                  
RUSSELLVILLE   CLEAR     54  52  93 CALM      29.70R                  
CLINTON        FAIR      54  52  94 CALM      29.70R                  
$$

ARZ036-250400-
EAST ARKANSAS
  
CITY           SKY/WX    TMP DP  RH WIND       PRES   REMARKS
WEST MEMPHIS   PTCLDY    56  52  86 CALM      29.65R                  
$$

ARZ050-053-066-070-073-250400-
SOUTHWEST ARKANSAS
  
CITY           SKY/WX    TMP DP  RH WIND       PRES   REMARKS
ARKADELPHIA    FAIR      58  52  80 W3        29.72R                  
CAMDEN         CLEAR     55  50  82 CALM      29.72R                  
TEXARKANA      CLEAR     56  51  84 CALM      29.73R                  
EL DORADO      CLEAR     56  52  86 W6        29.73R                  
DE QUEEN       PTCLDY    55  52  89 CALM      29.72R                  
$$

ARZ056-057-069-250400-
SOUTHEAST ARKANSAS
  
CITY           SKY/WX    TMP DP  RH WIND       PRES   REMARKS
PINE BLUFF     PTCLDY    58  50  75 W6        29.70R                  
STUTTGART      CLOUDY    59  45  58 W9        29.70R                  
MONTICELLO     CLEAR     59  50  72 W5        29.70R                  

$$